This is the latest recevied weather packets stored in our database for station/object JR5YHL-13. If no packets are shown the sender has not sent any weather packets the latest 10 day(s).
| Time | Temp. | Humidity | Pressure | Rain* | Wind** | Luminosity | Snow |
|---|---|---|---|---|---|---|---|
| 1778029144 | 22.78° C | 53% | 1019.3 hPa | 0 mm | - | - | - |
| 1778028547 | 22.78° C | 54% | 1019.3 hPa | 0 mm | - | - | - |
| 1778027949 | 22.22° C | 55% | 1019.5 hPa | 0 mm | - | - | - |
| 1778027351 | 21.67° C | 56% | 1019.6 hPa | 0 mm | - | - | - |
| 1778026754 | 21.11° C | 56% | 1019.6 hPa | 0 mm | - | - | - |
| 1778026156 | 21.11° C | 59% | 1019.7 hPa | 0 mm | - | - | - |
| 1778025558 | 20.56° C | 59% | 1019.7 hPa | 0 mm | - | - | - |
| 1778024960 | 20° C | 61% | 1019.8 hPa | 0 mm | - | - | - |
| 1778024363 | 19.44° C | 63% | 1019.8 hPa | 0 mm | - | - | - |
| 1778023765 | 18.89° C | 64% | 1019.9 hPa | 0 mm | - | - | - |
| 1778023167 | 18.89° C | 66% | 1020 hPa | 0 mm | - | - | - |
| 1778022570 | 17.78° C | 69% | 1020.2 hPa | 0 mm | - | - | - |
| 1778021972 | 17.22° C | 71% | 1020.1 hPa | 0 mm | - | - | - |
| 1778021374 | 16.11° C | 77% | 1020.4 hPa | 0 mm | - | - | - |
| 1778020777 | 15° C | 79% | 1020.3 hPa | 0 mm | - | - | - |
| 1778020179 | 15° C | 79% | 1020.4 hPa | 0 mm | - | - | - |
| 1778019581 | 14.44° C | 80% | 1020.4 hPa | 0 mm | - | - | - |
| 1778018983 | 14.44° C | 81% | 1020.3 hPa | 0 mm | - | - | - |
| 1778018386 | 14.44° C | 83% | 1020.3 hPa | 0 mm | - | - | - |
| 1778017788 | 13.89° C | 86% | 1020.1 hPa | 0 mm | - | - | - |
| 1778017190 | 13.33° C | 86% | 1020.2 hPa | 0 mm | - | - | - |
| 1778016592 | 13.33° C | 87% | 1020.3 hPa | 0 mm | - | - | - |
| 1778015995 | 12.78° C | 88% | 1020.2 hPa | 0 mm | - | - | - |
| 1778015397 | 12.78° C | 88% | 1020.1 hPa | 0 mm | - | - | - |
| 1778014799 | 12.78° C | 89% | 1020.2 hPa | 0 mm | - | - | - |
* Rain latest hour (hover to see other rain measurements)
** Current wind speed in m/s (hover to see current wind gust speed)